Content
SEND FEEDBACK

Daily
Averages
Monthly
Summary
United States of America

MERIZO, GUAM


Home > North America > United States > Guam
Elevation: 10 feet     Latitude: 13 14N     Longitude: 144 39E

WEATHER
 
SELECT A DAY
Number of Records: 341,524;   Date Range: 1/1/95 - 7/7/14
 
SHARE

PRINT THIS DATA

[ ← Previous Day ]
WEATHER ALMANAC - FEBRUARY 15, 2013
[ Next Day → ]
[ °C ]   °F
Weather ElementAverageHighLow
Temperature78.9 °F84.4 °F (2:55 pm)73.4 °F (8:12 am)
Dewpoint71.3 °F73.4 °F (1:16 am)66.2 °F (8:26 am)
Humidity77.8 %89 % (1:16 am)66 % (12:37 pm)
Barometer29.79 in29.84 in (8:09 am)29.75 in (2:55 pm)
Wind Speed19.3 mph26.5 mph (8:09 am)
Wind Gust33.4 mph (8:09 am)
Weather ElementAverage
Visibility9.3 mi
Wind DirectionENE (62.6 °)

Weather ElementTotal
Precipitation0.02 in
Cooling Degree Days13.9 (Base 65)
Growing Degree Days28.9 (Base 50)
Averaged from 68 records on February 15, 2013
WEATHER CONDITIONS BREAKOUT
WIND DIRECTION BREAKOUT
WEATHER BY HOUR - FEBRUARY 15, 2013
[ °C ]   °F
Local TimeTemperatureDewpointHumidityBarometerVisibilityWind DirectionWind SpeedGust SpeedPrecipitationEventsConditions
1:16 AM77.0 °F73.4 °F89 %29.81 in8.0 miENE (70°)17.3 mphRainLight Rain
1:26 AM77.0 °F73.4 °F89 %29.80 in9.0 miENE (70°)18.4 mphScattered Clouds
1:55 AM76.5 °F70.9 °F83 %29.80 in10.0 miENE (70°)17.3 mph0.01 inPartly Cloudy
2:55 AM76.8 °F71.2 °F83 %29.78 in10.0 miENE (60°)16.1 mphScattered Clouds
3:33 AM77.0 °F71.6 °F83 %29.77 in10.0 miENE (60°)16.1 mphMostly Cloudy
3:38 AM77.0 °F71.6 °F83 %29.77 in10.0 miENE (60°)16.1 mphScattered Clouds
3:55 AM77.0 °F71.1 °F82 %29.77 in10.0 miENE (60°)18.4 mphScattered Clouds
4:55 AM77.0 °F70.9 °F81 %29.77 in10.0 miENE (60°)18.4 mphPartly Cloudy
5:55 AM76.6 °F71.4 °F84 %29.78 in10.0 miENE (60°)17.3 mphClear
6:35 AM77.0 °F71.6 °F83 %29.80 in10.0 miENE (60°)20.7 mphMostly Cloudy
6:45 AM77.0 °F69.8 °F78 %29.80 in10.0 miENE (60°)17.3 mph25.3 mphScattered Clouds
6:55 AM77.5 °F70.7 °F79 %29.81 in10.0 miENE (60°)19.6 mphMostly Cloudy
7:04 AM77.0 °F71.6 °F83 %29.81 in10.0 miENE (60°)17.3 mphMostly Cloudy
7:06 AM77.0 °F71.6 °F83 %29.81 in10.0 miENE (60°)18.4 mph25.3 mphMostly Cloudy
7:12 AM77.0 °F71.6 °F83 %29.81 in10.0 miENE (70°)15.0 mph25.3 mphMostly Cloudy
7:15 AM77.0 °F71.6 °F83 %29.81 in10.0 miENE (60°)18.4 mph25.3 mphMostly Cloudy
7:16 AM77.0 °F71.6 °F83 %29.81 in10.0 miENE (60°)19.6 mph24.2 mphMostly Cloudy
7:30 AM77.0 °F73.4 °F89 %29.83 in10.0 miENE (60°)19.6 mphMostly Cloudy
7:31 AM77.0 °F73.4 °F89 %29.83 in10.0 miENE (60°)19.6 mphMostly Cloudy
7:36 AM77.0 °F71.6 °F83 %29.83 in10.0 miENE (60°)19.6 mphOvercast
7:44 AM77.0 °F71.6 °F83 %29.83 in10.0 miEast (80°)18.4 mph26.5 mphOvercast
7:53 AM75.2 °F71.6 °F89 %29.83 in10.0 miEast (80°)18.4 mph24.2 mphOvercast
7:55 AM75.7 °F72.3 °F89 %29.83 in10.0 miEast (80°)17.3 mph24.2 mphOvercast
8:09 AM75.2 °F71.6 °F89 %29.84 in4.0 miENE (70°)26.5 mph33.4 mphRainLight Rain
8:10 AM75.2 °F71.6 °F89 %29.84 in3.0 miENE (70°)26.5 mph33.4 mphRainLight Rain
8:12 AM73.4 °F69.8 °F88 %29.84 in2.5 miENE (70°)25.3 mph33.4 mphRainLight Rain
8:15 AM73.4 °F68.0 °F83 %29.84 in2.0 miENE (70°)24.2 mph33.4 mphRainLight Rain
8:18 AM73.4 °F68.0 °F83 %29.84 in2.5 miENE (70°)18.4 mph33.4 mphRainLight Rain
8:19 AM73.4 °F68.0 °F83 %29.84 in3.0 miENE (70°)19.6 mph33.4 mphLight Drizzle
8:26 AM73.4 °F66.2 °F78 %29.83 in10.0 miEast (90°)19.6 mph32.2 mphOvercast
8:55 AM77.0 °F72.3 °F85 %29.84 in10.0 miEast (80°)15.0 mph0.01 inMostly Cloudy
9:55 AM81.5 °F70.5 °F69 %29.84 in10.0 miENE (70°)20.7 mphClear
10:55 AM82.9 °F72.3 °F70 %29.83 in10.0 miENE (70°)19.6 mph26.5 mphPartly Cloudy
11:55 AM83.7 °F71.8 °F67 %29.81 in10.0 miNE (50°)18.4 mph25.3 mphClear
12:37 PM84.2 °F71.6 °F66 %29.80 in10.0 miNE (50°)19.6 mph24.2 mphMostly Cloudy
12:43 PM84.2 °F71.6 °F66 %29.80 in10.0 miENE (60°)19.6 mphScattered Clouds
12:55 PM84.2 °F72.3 °F67 %29.80 in10.0 miENE (60°)17.3 mph24.2 mphScattered Clouds
1:28 PM82.4 °F71.6 °F70 %29.79 in10.0 miENE (60°)21.9 mphMostly Cloudy
1:36 PM84.2 °F71.6 °F66 %29.78 in10.0 miENE (60°)18.4 mph24.2 mphScattered Clouds
1:46 PM84.2 °F73.4 °F70 %29.78 in10.0 miENE (60°)19.6 mphMostly Cloudy
1:47 PM84.2 °F73.4 °F70 %29.78 in10.0 miENE (60°)19.6 mphScattered Clouds
1:49 PM84.2 °F73.4 °F70 %29.78 in10.0 miENE (60°)21.9 mphMostly Cloudy
1:54 PM82.4 °F71.6 °F70 %29.78 in10.0 miENE (60°)20.7 mphScattered Clouds
1:55 PM83.1 °F72.0 °F69 %29.78 in10.0 miENE (60°)21.9 mph27.6 mphScattered Clouds
2:55 PM84.4 °F72.5 °F67 %29.75 in10.0 miENE (60°)19.6 mphPartly Cloudy
3:09 PM84.2 °F71.6 °F66 %29.75 in10.0 miENE (60°)23.0 mph26.5 mphMostly Cloudy
3:11 PM84.2 °F71.6 °F66 %29.75 in10.0 miENE (60°)19.6 mph26.5 mphScattered Clouds
3:16 PM84.2 °F71.6 °F66 %29.75 in10.0 miNE (50°)21.9 mphMostly Cloudy
3:27 PM82.4 °F71.6 °F70 %29.75 in10.0 miENE (60°)18.4 mphScattered Clouds
3:36 PM82.4 °F71.6 °F70 %29.75 in10.0 miENE (60°)18.4 mph25.3 mphMostly Cloudy
3:41 PM82.4 °F71.6 °F70 %29.75 in10.0 miNE (50°)20.7 mphScattered Clouds
3:55 PM82.8 °F72.3 °F71 %29.75 in10.0 miENE (60°)21.9 mphPartly Cloudy
4:37 PM80.6 °F71.6 °F74 %29.75 in10.0 miENE (60°)18.4 mphMostly Cloudy
4:55 PM80.6 °F72.3 °F76 %29.75 in10.0 miENE (60°)19.6 mphMostly Cloudy
5:13 PM80.6 °F71.6 °F74 %29.75 in10.0 miNE (50°)19.6 mphScattered Clouds
5:55 PM79.3 °F70.9 °F75 %29.75 in10.0 miNE (50°)19.6 mphScattered Clouds
6:55 PM78.1 °F69.1 °F74 %29.76 in10.0 miENE (60°)17.3 mph24.2 mphClear
7:55 PM77.7 °F70.3 °F78 %29.77 in10.0 miENE (60°)18.4 mphPartly Cloudy
8:48 PM77.0 °F71.6 °F83 %29.79 in10.0 miENE (60°)19.6 mphMostly Cloudy
8:50 PM77.0 °F71.6 °F83 %29.79 in10.0 miENE (60°)19.6 mphScattered Clouds
8:55 PM77.7 °F70.9 °F79 %29.79 in10.0 miENE (60°)19.6 mphScattered Clouds
8:59 PM77.0 °F69.8 °F78 %29.79 in10.0 miENE (60°)21.9 mph26.5 mphMostly Cloudy
9:30 PM77.0 °F69.8 °F78 %29.80 in10.0 miENE (60°)17.3 mph27.6 mphScattered Clouds
9:31 PM77.0 °F69.8 °F78 %29.80 in10.0 miENE (60°)18.4 mph27.6 mphMostly Cloudy
9:36 PM77.0 °F69.8 °F78 %29.79 in10.0 miENE (60°)19.6 mph27.6 mphMostly Cloudy
9:55 PM77.4 °F69.8 °F77 %29.79 in10.0 miENE (60°)17.3 mph23.0 mphScattered Clouds
10:55 PM77.5 °F71.2 °F81 %29.78 in10.0 miENE (60°)17.3 mphPartly Cloudy
11:55 PM77.2 °F70.2 °F79 %29.77 in10.0 miENE (70°)15.0 mphPartly Cloudy
Hourly data recorded from PGUA, located miles away from Merizo, Guam







STORIES FROM OUR PARTNERS